Wind_Speed
57 52 54 53 44 42 49 47 49 41 48 46 47 50 41 31 33 32 25 31 38 40 39 38 30 25 18 23 19 21 17 18 16 13 17 20 16 17 19 19 15 17 16 17
54 54 50 55 54 49 44 43 45 44 45 50 44 42 39 37 36 32 31 44 35 39 39 39 40 38 37 33 25 28 25 19 19 17 16 21 20 19 21 19 16 15 17 18
64 58 53 55 64 57 44 39 39 47 40 39 53 51 36 28 39 43 37 32 38 44 46 44 43 44 46 38 28 30 29 26 25 23 18 19 22 22 23 21 21 19 18 21
64 62 62 65 56 54 52 46 42 40 36 36 41 55 43 38 43 47 45 47 39 40 41 46 51 51 48 45 35 31 32 32 29 26 21 20 23 22 22 25 21 22 24 27
57 68 70 65 55 52 49 46 47 42 38 38 32 53 58 52 50 49 43 53 41 43 49 39 45 45 50 45 40 38 34 35 31 29 25 21 25 24 24 23 22 25 30 32
48 67 77 68 58 45 49 48 47 48 44 33 33 44 63 62 60 58 52 54 54 49 45 54 47 41 43 44 43 39 38 39 38 33 29 24 25 26 27 27 26 30 36 39
45 56 71 62 63 45 37 52 50 52 47 41 40 45 51 69 66 64 63 60 54 60 50 55 50 52 55 50 49 42 43 42 42 38 35 30 27 32 32 32 33 37 42 47
40 49 57 45 42 48 46 52 51 48 51 51 47 47 47 44 59 75 74 71 71 67 64 57 54 54 58 47 47 46 48 46 43 43 39 34 33 37 39 33 37 42 45 48
42 41 44 40 45 48 56 58 52 51 49 51 54 56 55 51 47 44 48 66 80 78 75 71 61 62 66 69 66 62 51 51 45 44 42 37 38 42 39 39 42 46 49 48
50 55 51 53 55 55 48 53 52 53 51 48 49 51 52 48 47 46 49 51 53 54 54 52 60 75 74 76 74 71 53 52 53 47 45 42 42 42 43 44 47 48 54 50
55 52 50 56 62 55 50 50 58 57 48 50 48 46 43 43 46 47 46 50 46 48 53 49 52 51 51 64 69 63 57 53 53 51 47 43 43 44 44 47 51 54 53 54
58 53 56 54 53 56 60 59 53 53 52 50 48 47 52 42 42 42 44 41 39 43 46 49 57 53 51 51 58 51 47 48 47 48 46 41 44 46 46 52 55 51 42 54
62 56 48 48 54 40 54 58 46 51 54 43 41 45 45 44 46 48 46 42 44 42 43 47 51 54 53 47 46 45 44 48 46 45 41 42 44 48 51 54 37 46 48 50
52 59 63 60 57 49 37 52 54 48 44 40 43 38 39 46 45 39 36 41 42 38 40 43 46 47 48 48 50 49 46 47 35 37 38 45 51 50 51 53 40 43 47 48
41 45 45 43 43 48 51 58 42 40 37 37 42 44 41 39 36 32 30 33 38 38 22 27 31 28 33 37 45 54 47 44 35 41 47 52 50 44 51 43 47 46 49 48
43 33 42 44 49 40 38 44 45 41 33 32 34 35 35 33 35 35 33 26 17 19 27 28 34 32 38 44 48 42 39 42 43 39 45 50 46 43 42 42 43 42 45 44
37 23 19 31 42 39 38 35 35 37 32 30 34 39 38 38 33 38 35 34 32 30 31 36 35 37 36 50 44 35 43 42 50 53 47 49 48 46 50 49 41 43 43 40
19 14 14 13 13 14 20 21 23 25 29 30 33 35 37 40 38 42 38 36 35 32 32 32 34 32 31 33 33 36 40 45 51 52 54 52 52 50 42 37 42 39 35 32
18 10 15 11 10 12 15 18 23 27 27 24 27 28 27 30 32 38 46 37 36 38 39 36 36 36 39 42 44 52 54 54 63 57 61 49 45 27 34 35 36 34 29 27
17 9 7 6 5 11 15 15 22 23 24 23 20 19 32 37 37 36 39 40 42 42 41 42 46 47 46 50 48 51 53 32 25 21 18 21 23 29 31 34 32 30 32 34
6 2 6 3 4 4 3 6 7 16 23 22 23 24 23 20 41 49 47 44 41 37 28 29 35 38 43 49 43 31 18 10 16 24 27 27 28 31 31 31 30 33 35 34
7 7 6 6 7 8 10 11 13 15 23 24 24 21 16 12 15 16 15 11 12 14 15 17 18 20 21 24 24 24 23 25 29 32 32 32 31 30 31 32 33 33 33 34
9 10 8 7 6 5 5 4 5 8 12 24 14 11 10 13 16 16 15 16 18 21 22 23 25 26 27 25 25 27 29 30 30 29 31 30 30 30 30 31 33 35 37 37
4 4 5 3 2 4 5 5 4 7 8 9 13 18 14 13 16 18 20 20 21 23 26 26 26 27 27 26 30 32 32 33 35 35 33 33 31 32 34 35 37 38 37 35
4 6 6 5 7 9 11 12 13 13 15 17 16 16 19 21 22 23 25 25 23 24 28 28 27 27 29 32 34 36 36 37 36 35 36 36 37 35 35 36 36 35 36 35
7 7 8 8 9 10 13 13 15 14 16 17 20 22 24 26 27 28 29 29 32 31 29 31 30 32 34 37 39 39 37 35 34 35 38 38 37 38 38 37 37 37 37 34
13 11 13 15 16 18 16 13 17 20 18 19 20 24 27 28 26 24 28 31 31 34 36 36 34 35 37 37 38 36 36 37 37 38 38 37 39 41 41 40 39 38 38 39
Wind_Direction
234 227 219 225 218 235 236 239 239 244 238 244 210 223 239 253 250 268 196 220 232 228 232 240 236 231 210 245 244 258 260 251 260 255 235 247 248 250 244 247 268 292 311 322
233 238 224 219 218 218 237 242 245 244 240 228 229 216 236 242 258 251 236 209 219 235 244 245 242 246 246 245 252 256 257 249 254 263 264 240 251 253 252 270 271 288 302 312
227 227 227 216 219 216 217 236 248 245 248 237 228 210 218 230 243 243 233 211 229 234 237 248 254 260 267 262 257 253 254 253 255 261 270 252 249 254 254 261 273 288 295 304
224 225 222 228 222 216 213 216 229 248 251 240 230 218 213 222 247 228 235 256 214 231 237 243 249 258 265 262 265 262 252 253 256 261 267 253 253 252 249 258 273 282 284 294
218 223 227 226 219 212 209 216 218 227 237 249 240 214 211 219 235 243 239 226 227 222 232 242 241 247 256 261 263 259 256 255 254 261 264 252 251 257 256 263 275 285 290 296
214 219 225 222 220 214 214 220 215 218 228 227 243 222 217 216 227 232 243 248 242 217 239 240 236 241 244 250 252 252 255 256 258 256 256 255 256 259 265 271 281 287 290 291
207 215 227 227 222 217 211 220 224 217 221 223 228 234 225 220 223 229 231 240 247 248 242 248 242 244 251 237 244 250 251 252 256 253 254 252 254 264 271 273 279 287 291 293
203 213 223 218 210 210 209 220 218 223 222 225 229 233 240 236 228 229 233 235 238 241 243 243 243 243 251 241 242 252 252 247 251 254 254 256 255 264 266 271 286 291 293 295
189 199 209 191 194 203 213 221 224 228 231 231 234 237 243 246 246 246 236 241 245 247 250 250 247 247 253 254 256 261 243 240 243 251 254 255 260 259 262 274 280 285 289 284
185 194 201 192 193 202 220 219 218 223 223 226 233 236 241 243 245 249 250 246 246 247 248 252 253 247 248 253 255 260 235 238 238 245 248 251 254 258 270 277 279 275 281 278
190 193 194 193 197 209 209 224 225 227 223 224 233 240 246 247 247 249 250 249 254 252 253 252 250 244 247 248 249 241 235 235 240 240 244 245 253 263 264 269 271 268 269 286
198 199 209 210 214 218 220 228 229 225 232 229 236 238 240 243 249 258 258 257 260 253 246 247 246 244 241 243 238 241 240 238 240 240 236 243 251 257 260 266 271 273 294 300
206 206 206 213 220 223 221 222 230 218 224 224 225 231 237 249 253 259 260 259 255 254 249 248 245 241 240 236 239 239 241 237 234 232 234 243 252 256 262 265 285 297 285 297
200 208 215 226 227 227 200 213 220 216 226 236 237 243 251 249 255 261 260 253 250 252 251 250 249 249 243 240 236 240 244 247 221 231 237 243 251 250 260 270 293 287 296 292
205 212 216 220 226 232 224 232 221 221 229 235 237 242 248 253 255 249 258 246 244 248 223 219 235 219 224 224 228 232 230 246 244 241 247 256 249 264 269 281 286 293 296 292
206 216 223 230 232 229 263 216 213 221 221 226 232 240 244 248 247 235 243 242 238 245 254 244 239 234 232 229 227 230 236 241 246 248 255 267 268 270 272 279 288 290 292 296
187 206 208 219 231 235 221 211 212 214 232 237 237 241 246 248 252 235 228 233 241 245 245 247 257 239 257 249 225 218 230 243 248 256 254 264 270 268 270 269 278 292 291 290
164 183 184 179 197 200 193 207 220 223 231 240 253 250 249 250 252 243 234 235 238 243 245 247 258 263 264 246 242 248 256 255 251 254 258 263 262 268 277 268 278 284 286 285
174 182 183 209 221 224 227 236 241 245 253 252 241 261 254 251 249 245 240 235 235 243 246 247 251 255 257 264 266 262 263 263 266 258 264 259 255 267 276 280 279 282 273 281
156 164 139 143 168 238 236 233 235 229 235 239 246 260 246 249 241 245 241 247 247 246 249 249 247 247 251 258 258 266 240 253 265 256 272 271 264 275 279 280 283 275 279 285
154 177 225 207 254 277 202 211 230 252 248 256 238 237 225 233 233 235 230 237 242 240 238 230 239 240 249 252 255 263 260 235 241 271 276 271 277 278 278 275 265 272 279 281
174 187 191 203 225 253 264 256 240 255 247 221 224 230 234 237 233 230 228 231 232 257 251 256 257 261 261 258 260 263 262 257 260 267 270 272 275 274 272 274 276 277 277 279
131 140 149 168 177 156 169 184 213 216 220 197 179 204 221 231 235 235 240 243 243 243 244 247 252 254 255 258 261 261 261 261 265 269 271 274 273 273 275 276 277 277 278 278
101 129 136 146 212 237 242 253 264 274 268 264 237 229 230 255 266 262 255 250 252 253 252 253 252 254 258 256 255 259 264 267 265 266 269 272 275 276 274 275 275 276 276 274
314 300 294 274 256 247 245 239 248 252 252 256 258 258 255 260 262 262 265 262 253 251 257 258 257 258 260 261 263 262 262 265 267 268 270 269 269 269 270 270 271 271 271 272
297 300 295 291 283 265 257 266 265 257 254 249 253 258 261 258 258 264 263 265 268 268 261 259 261 263 262 262 262 262 262 263 262 263 264 267 272 272 272 273 275 275 274 273
297 301 304 297 291 289 288 284 273 272 277 277 271 261 256 261 267 269 270 269 267 266 265 261 257 258 260 262 262 261 263 265 263 261 262 266 269 272 273 273 274 273 272 272
Height
5747 5759 5770 5775 5780 5785 5787 5795 5797 5806 5811 5818 5832 5836 5842 5845 5847 5846 5848 5853 5854 5858 5862 5867 5872 5877 5878 5883 5883 5886 5888 5889 5891 5891 5892 5891 5892 5893 5894 5895 5894 5893 5892 5890
5733 5742 5752 5762 5768 5774 5779 5785 5788 5795 5798 5811 5821 5827 5834 5836 5836 5839 5842 5843 5850 5852 5854 5858 5863 5870 5874 5877 5878 5879 5882 5884 5885 5886 5886 5886 5887 5887 5886 5886 5887 5887 5886 5884
5718 5730 5739 5744 5748 5762 5770 5777 5781 5781 5793 5802 5806 5818 5821 5828 5827 5831 5835 5837 5842 5847 5851 5850 5853 5858 5861 5867 5870 5872 5874 5876 5877 5879 5880 5880 5880 5880 5881 5880 5880 5880 5878 5876
5706 5718 5724 5730 5744 5753 5760 5767 5774 5777 5783 5789 5795 5806 5811 5815 5815 5820 5826 5826 5832 5837 5840 5846 5849 5850 5853 5858 5861 5863 5866 5868 5870 5871 5872 5872 5872 5872 5872 5872 5873 5871 5870 5868
5691 5698 5709 5722 5735 5746 5752 5758 5765 5769 5773 5778 5785 5792 5798 5803 5806 5806 5815 5814 5820 5825 5828 5833 5835 5843 5845 5848 5851 5854 5857 5860 5863 5864 5865 5864 5864 5864 5864 5864 5864 5864 5862 5860
5678 5685 5691 5710 5726 5739 5745 5747 5756 5760 5764 5768 5775 5778 5787 5791 5794 5799 5803 5806 5806 5814 5820 5820 5821 5828 5836 5839 5839 5842 5846 5850 5853 5855 5857 5857 5856 5856 5855 5855 5856 5855 5853 5851
5665 5677 5687 5700 5718 5733 5732 5739 5742 5749 5754 5757 5762 5766 5772 5781 5787 5790 5796 5798 5801 5804 5807 5809 5815 5817 5822 5828 5830 5834 5836 5838 5841 5844 5847 5849 5849 5847 5847 5848 5847 5845 5843 5841
5660 5670 5683 5697 5712 5717 5721 5724 5732 5739 5747 5751 5755 5759 5763 5769 5776 5781 5783 5788 5789 5793 5795 5799 5804 5806 5809 5815 5823 5824 5826 5826 5829 5833 5837 5839 5839 5839 5837 5838 5836 5836 5832 5832
5652 5666 5675 5689 5699 5706 5709 5713 5723 5731 5738 5743 5746 5750 5753 5757 5762 5767 5772 5776 5779 5783 5786 5791 5793 5796 5799 5803 5807 5809 5813 5816 5818 5821 5825 5827 5828 5826 5826 5826 5825 5824 5822 5818
5641 5654 5662 5675 5680 5690 5698 5705 5710 5716 5723 5729 5735 5739 5743 5749 5753 5756 5758 5762 5766 5769 5773 5776 5777 5781 5784 5788 5792 5794 5799 5802 5805 5808 5811 5813 5815 5814 5816 5816 5815 5813 5810 5806
5636 5647 5656 5660 5671 5680 5687 5691 5703 5710 5714 5720 5727 5733 5736 5739 5742 5743 5745 5749 5755 5758 5758 5762 5764 5766 5768 5773 5777 5778 5782 5786 5788 5793 5798 5800 5803 5805 5806 5804 5802 5799 5795 5793
5633 5644 5650 5660 5667 5670 5676 5679 5689 5698 5705 5711 5717 5722 5725 5727 5730 5732 5733 5738 5742 5745 5747 5747 5750 5753 5755 5755 5760 5764 5767 5772 5776 5778 5779 5785 5790 5792 5791 5791 5791 5786 5781 5783
5632 5640 5646 5650 5658 5664 5668 5672 5682 5688 5696 5701 5707 5712 5715 5719 5723 5724 5725 5729 5730 5732 5733 5733 5734 5736 5737 5748 5750 5752 5757 5755 5758 5764 5769 5774 5777 5779 5780 5782 5775 5774 5773 5770
5625 5634 5640 5643 5647 5654 5640 5651 5668 5680 5689 5694 5699 5702 5707 5711 5713 5713 5713 5716 5719 5719 5721 5721 5722 5724 5729 5733 5739 5745 5748 5743 5744 5752 5760 5763 5764 5766 5766 5771 5765 5766 5763 5762
5621 5628 5632 5630 5642 5648 5642 5654 5666 5675 5682 5686 5689 5694 5698 5701 5702 5703 5707 5708 5709 5711 5685 5706 5713 5704 5717 5720 5727 5730 5737 5740 5746 5749 5750 5754 5755 5756 5758 5755 5755 5752 5751 5749
5617 5623 5629 5632 5636 5639 5644 5645 5652 5664 5670 5677 5682 5686 5689 5692 5692 5696 5697 5700 5695 5702 5706 5707 5711 5713 5712 5714 5716 5724 5729 5734 5738 5741 5743 5740 5740 5745 5744 5743 5743 5742 5740 5738
5611 5620 5622 5625 5631 5634 5637 5643 5651 5658 5664 5669 5675 5677 5680 5682 5685 5688 5689 5692 5697 5697 5698 5699 5704 5706 5706 5707 5709 5712 5718 5723 5726 5728 5729 5731 5731 5731 5732 5734 5732 5729 5728 5726
5612 5618 5622 5625 5629 5632 5636 5642 5646 5652 5656 5662 5664 5667 5670 5671 5675 5679 5683 5684 5688 5690 5692 5694 5694 5697 5701 5703 5706 5711 5713 5713 5713 5715 5716 5715 5714 5714 5720 5721 5720 5718 5714 5714
5612 5614 5619 5622 5627 5631 5635 5638 5643 5647 5651 5654 5656 5657 5659 5662 5665 5669 5674 5675 5678 5682 5685 5687 5688 5690 5692 5695 5696 5700 5699 5699 5698 5701 5703 5702 5703 5699 5704 5707 5709 5707 5704 5703
5612 5616 5619 5622 5625 5628 5631 5635 5639 5640 5644 5649 5650 5650 5652 5654 5658 5660 5664 5666 5669 5672 5674 5676 5680 5683 5686 5686 5686 5685 5681 5684 5683 5687 5688 5691 5690 5693 5694 5694 5694 5695 5695 5694
5612 5616 5619 5622 5624 5626 5629 5631 5634 5635 5637 5641 5644 5646 5647 5646 5651 5654 5656 5658 5661 5662 5663 5661 5660 5666 5670 5673 5673 5676 5676 5679 5677 5680 5680 5683 5683 5684 5684 5686 5688 5687 5686 5685
5614 5616 5619 5621 5622 5623 5625 5627 5629 5630 5631 5634 5637 5640 5642 5643 5645 5645 5647 5648 5651 5654 5654 5655 5656 5657 5660 5663 5663 5665 5668 5670 5672 5672 5672 5673 5674 5673 5674 5675 5676 5677 5677 5676
5615 5618 5619 5620 5621 5623 5625 5626 5627 5629 5630 5629 5633 5636 5639 5641 5642 5644 5646 5646 5648 5650 5651 5650 5651 5652 5653 5652 5654 5657 5658 5660 5660 5660 5660 5661 5662 5664 5665 5666 5666 5666 5665 5665
5617 5619 5621 5621 5622 5622 5624 5626 5627 5627 5628 5631 5632 5633 5635 5636 5638 5638 5638 5639 5640 5642 5643 5642 5644 5645 5643 5643 5644 5645 5646 5647 5647 5648 5651 5652 5654 5654 5654 5653 5654 5653 5653 5653
5617 5617 5618 5619 5619 5621 5621 5623 5624 5625 5625 5625 5627 5627 5629 5631 5633 5633 5631 5630 5633 5634 5634 5634 5635 5634 5633 5634 5636 5637 5637 5637 5640 5641 5640 5640 5640 5642 5643 5644 5644 5642 5640 5639
5617 5618 5617 5617 5616 5617 5618 5618 5618 5619 5619 5620 5619 5620 5621 5622 5622 5622 5623 5622 5621 5622 5622 5623 5624 5624 5625 5626 5627 5628 5628 5629 5629 5629 5629 5630 5629 5628 5628 5629 5628 5626 5626 5627
5614 5614 5613 5612 5611 5610 5611 5613 5612 5611 5613 5613 5612 5611 5611 5612 5613 5615 5613 5612 5613 5613 5612 5612 5613 5611 5611 5612 5613 5614 5614 5613 5615 5616 5616 5616 5615 5614 5614 5614 5613 5613 5613 5613